Flagstaff, AZ

4:50 AM MST on December 07, 2016 (GMT -0700)
Flagstaff Pulliam

Weather History for KFLG - September, 2014

Change the Weather History Date:

Wednesday, September 17, 2014

  Actual Average Record
Temperature  
Mean Temperature 60 °F 57 °F  
Max Temperature 68 °F 73 °F 88 °F (1956)
Min Temperature 51 °F 42 °F 27 °F (1903)
Degree Days  
Heating Degree Days 5 8  
Month to date heating degree days 62 94  
Since 1 July heating degree days 156 182  
Cooling Degree Days 0 0  
Month to date cooling degree days 0 0  
Year to date cooling degree days 109 114  
Growing Degree Days 9 (Base 50)    
Moisture  
Dew Point 55 °F    
Average Humidity 80    
Maximum Humidity 96    
Minimum Humidity 63    
Precipitation  
Precipitation 0.16 in 0.08 in 1.71 in (1925)
Month to date precipitation 1.51 1.45  
Year to date precipitation 14.35 15.64  
Snow  
Snow 0.00 in 0.00 in 0.00 in (2002)
Month to date snowfall 0.0 0.0  
Since 1 July snowfall 0.0 0.0  
Snow Depth 0.00 in    
Sea Level Pressure  
Sea Level Pressure 30.06 in    
Wind  
Wind Speed 4 mph (ENE)    
Max Wind Speed 16 mph    
Max Gust Speed 23 mph    
Visibility 8 miles    
Events Rain    
T = Trace of Precipitation, MM = Missing Value Source: NWS Daily Summary

Daily Weather History Graph

Daily Weather History Graph

Search for Another Location

Airport or City:

Trip Planner

Search our weather history database for the weather conditions in past years. The results will help you decide how hot, cold, wet, or windy it might be!

Date:

Astronomy

Sep. 17, 2014 Rise Set
Actual Time 6:11 AM MST 6:30 PM MST
Civil Twilight 5:45 AM MST 6:55 PM MST
Nautical Twilight 5:15 AM MST 7:25 PM MST
Astronomical Twilight 4:45 AM MST 7:55 PM MST
Moon 12:23 AM MST (9/17) 2:34 PM MST (9/17)
Length of Visible Light 13h 10m
Length of Day
12h 19m
Waning Crescent, 34% of the Moon is Illuminated
Sep 17
Waning Crescent
Sep 23
New
Oct 1
First Quarter
Oct 8
Full
Oct 15
Last Quarter

Hourly Weather History & Observations

Time (MST) Temp. Dew Point Humidity Pressure Visibility Wind Dir Wind Speed Gust Speed Precip Events Conditions
12:57 AM 57.0 °F 54.0 °F 89% 29.94 in 10.0 mi East 4.6 mph - N/A   Clear
1:57 AM 55.9 °F 54.0 °F 93% 29.93 in 10.0 mi Calm Calm - N/A   Overcast
2:57 AM 57.0 °F 54.0 °F 89% 29.94 in 10.0 mi Calm Calm - N/A   Overcast
3:57 AM 57.0 °F 54.0 °F 89% 29.94 in 10.0 mi NNE 3.5 mph - N/A   Overcast
4:57 AM 55.9 °F 54.0 °F 93% 29.94 in 10.0 mi Calm Calm - N/A   Overcast
5:57 AM 55.9 °F 54.0 °F 93% 29.96 in 10.0 mi Calm Calm - N/A   Overcast
6:57 AM 57.0 °F 53.1 °F 87% 29.97 in 10.0 mi ENE 4.6 mph - N/A   Overcast
7:57 AM 57.0 °F 54.0 °F 89% 29.98 in 5.0 mi Calm Calm - 0.00 in Rain Light Rain
8:10 AM 57.0 °F 54.0 °F 89% 30.24 in 3.0 mi North 3.5 mph - 0.00 in Rain Light Rain
8:57 AM 57.9 °F 55.0 °F 90% 29.97 in 10.0 mi East 5.8 mph - 0.02 in Rain Light Rain
9:11 AM 57.9 °F 55.0 °F 90% 30.24 in 10.0 mi ENE 3.5 mph - 0.00 in   Overcast
9:19 AM 59.0 °F 55.9 °F 90% 30.24 in 10.0 mi ENE 4.6 mph - 0.00 in   Overcast
9:57 AM 59.0 °F 55.9 °F 90% 29.99 in 10.0 mi East 6.9 mph - 0.00 in   Overcast
10:26 AM 61.0 °F 55.9 °F 83% 30.24 in 10.0 mi East 4.6 mph - N/A   Overcast
10:34 AM 61.0 °F 57.0 °F 87% 30.24 in 10.0 mi ENE 6.9 mph - N/A   Overcast
10:57 AM 60.8 °F 55.4 °F 82% 30.24 in 10.0 mi ENE 8.1 mph - N/A Rain Light Rain
11:28 AM 59.0 °F 55.9 °F 90% 30.24 in 5.0 mi East 10.4 mph 23.0 mph 0.00 in Rain Light Rain
11:36 AM 57.9 °F 55.9 °F 93% 30.24 in 2.5 mi ENE 10.4 mph - 0.02 in Rain Rain
11:42 AM 57.9 °F 55.9 °F 93% 30.24 in 3.0 mi ENE 9.2 mph - 0.03 in Rain Rain
11:57 AM 59.0 °F 55.9 °F 90% 29.98 in 3.0 mi NE 8.1 mph - 0.06 in Rain Light Rain
12:34 PM 57.9 °F 55.9 °F 93% 30.23 in 1.8 mi ENE 10.4 mph - 0.03 in Rain Heavy Rain
12:38 PM 57.9 °F 55.9 °F 93% 30.23 in 3.0 mi ENE 10.4 mph - 0.05 in Rain Heavy Rain
12:45 PM 59.0 °F 55.9 °F 90% 30.22 in 3.0 mi ENE 10.4 mph - 0.07 in Rain Light Rain
12:57 PM 57.9 °F 55.9 °F 93% 29.98 in 8.0 mi ENE 8.1 mph - 0.07 in Rain Light Rain
1:19 PM 60.1 °F 57.0 °F 90% 30.22 in 10.0 mi ENE 9.2 mph - 0.01 in Rain Light Rain
1:43 PM 61.0 °F 57.0 °F 87% 30.21 in 10.0 mi East 10.4 mph - 0.01 in   Overcast
1:57 PM 62.1 °F 55.9 °F 80% 29.94 in 10.0 mi ENE 9.2 mph - 0.01 in   Overcast
2:11 PM 62.1 °F 55.0 °F 78% 30.19 in 10.0 mi ENE 10.4 mph - N/A   Overcast
2:24 PM 62.1 °F 55.9 °F 80% 30.19 in 10.0 mi NE 6.9 mph - N/A   Overcast
2:57 PM 64.0 °F 55.9 °F 75% 29.91 in 10.0 mi Variable 5.8 mph - N/A   Scattered Clouds
3:57 PM 66.9 °F 53.1 °F 61% 29.88 in 10.0 mi ENE 9.2 mph - N/A   Mostly Cloudy
4:57 PM 64.9 °F 54.0 °F 68% 29.88 in 10.0 mi East 6.9 mph - N/A   Partly Cloudy
5:57 PM 64.0 °F 55.0 °F 73% 29.90 in 10.0 mi ESE 3.5 mph - N/A   Overcast
6:57 PM 60.1 °F 55.0 °F 83% 29.91 in 10.0 mi Calm Calm - N/A   Clear
7:57 PM 57.0 °F 54.0 °F 89% 29.94 in 10.0 mi Calm Calm - N/A   Mostly Cloudy
8:57 PM 55.0 °F 53.1 °F 93% 29.95 in 10.0 mi NE 3.5 mph - N/A   Partly Cloudy
9:57 PM 54.0 °F 52.0 °F 93% 29.94 in 10.0 mi Calm Calm - N/A   Clear
10:57 PM 52.0 °F 50.0 °F 93% 29.93 in 10.0 mi Calm Calm - N/A   Clear
11:57 PM 51.1 °F 48.0 °F 89% 29.93 in 10.0 mi Calm Calm - N/A   Clear